GFSNE_sfc_thetae_108.txt.gz
Theta_e
317 318 317 317 317 318 317 316 312 306 308 313 313 310 310 308 306 305 306 308 308 308 307 307 307 308 309 311 312 316 322 325 325 327 327 327 326 326
313 313 314 315 315 315 315 315 313 309 304 312 311 308 306 304 304 303 302 303 306 306 305 305 306 306 306 308 310 313 317 324 325 326 326 325 325 324
310 311 311 312 312 312 313 312 310 309 305 304 306 304 302 301 300 299 300 302 304 305 305 305 304 304 305 306 308 310 313 318 324 325 325 324 321 318
306 307 307 306 309 309 309 309 308 308 306 303 300 299 299 299 298 295 295 295 299 303 303 304 304 303 303 304 305 306 308 310 313 318 319 317 316 315
304 304 304 304 306 307 306 306 306 304 304 301 298 297 296 296 293 291 290 290 293 295 299 302 302 300 300 300 302 303 304 306 307 308 312 312 312 312
302 303 303 303 303 303 303 303 302 301 300 300 299 296 295 294 293 289 288 288 288 290 294 297 298 296 296 296 297 299 300 302 303 304 304 305 308 310
300 300 300 299 297 300 301 302 301 299 298 297 296 293 291 290 290 290 288 287 287 288 290 293 295 294 292 292 293 295 297 298 299 300 300 301 302 303
299 299 299 296 296 297 297 297 298 297 296 295 294 291 291 292 291 289 286 285 285 288 290 290 291 290 291 293 292 292 293 295 296 296 297 297 299 300
298 298 296 295 294 296 293 292 292 292 293 295 292 293 292 292 290 288 287 288 288 288 291 289 289 288 288 290 292 291 292 292 293 294 294 295 297 298
297 297 296 294 292 292 292 291 290 290 291 289 292 293 292 292 291 291 289 287 286 286 289 287 287 286 288 291 290 292 292 293 294 294 294 295 296 296
295 295 294 292 291 292 290 288 288 288 291 292 291 291 291 292 294 293 288 288 288 288 287 287 286 286 287 288 291 292 292 293 294 294 294 295 295 295
292 291 291 291 290 291 291 289 287 286 288 289 289 290 292 291 290 293 293 290 289 286 287 286 284 285 284 287 289 290 292 292 292 293 293 293 293 293
291 290 287 290 292 291 291 290 289 289 288 289 289 290 290 289 289 289 290 291 289 288 288 288 286 285 286 284 285 288 289 289 290 290 290 291 292 291
290 291 290 288 289 291 291 290 289 288 289 288 287 287 287 287 288 288 287 288 289 287 289 286 285 286 286 284 284 285 286 288 288 288 289 289 290 291
290 288 286 287 288 289 291 291 290 289 287 285 285 286 287 288 286 286 285 286 285 286 286 285 286 284 285 285 284 283 283 285 286 286 287 287 288 289
291 289 290 289 288 288 289 291 290 289 287 286 286 286 287 286 286 286 285 285 285 284 284 284 284 284 284 284 284 283 284 283 285 285 285 286 286 287
291 288 288 287 286 286 287 288 288 288 287 287 286 285 285 285 285 285 285 284 284 284 283 283 284 284 284 283 282 283 284 283 284 284 283 283 285 285
288 286 286 286 286 286 285 286 286 286 287 287 286 286 285 284 284 284 284 283 283 284 284 284 283 282 282 284 285 284 283 283 284 283 284 282 283 286
288 287 286 287 287 286 286 286 286 287 287 287 287 286 286 285 284 284 283 283 283 284 284 284 283 282 280 280 284 285 284 283 283 282 283 282 283 285
288 288 287 288 287 287 287 286 286 286 286 286 286 286 285 285 284 284 284 283 283 283 283 284 282 282 281 282 283 283 285 284 283 282 283 283 284 285
288 288 289 288 288 288 288 288 287 287 286 285 285 285 285 285 284 285 284 284 284 283 282 283 284 286 286 283 280 280 282 285 285 284 284 281 281 281
286 286 286 287 287 287 288 288 287 286 286 286 285 285 285 285 284 284 284 284 284 284 283 285 286 285 283 280 280 281 283 284 284 285 285 285 282 279
286 286 286 286 286 286 286 286 286 286 286 285 285 285 285 284 284 285 284 284 284 283 284 283 284 284 282 280 280 281 282 282 282 281 283 285 285 285

GFSNE_sfc_thetae_111.txt.gz
Theta_e
322 320 318 316 319 319 318 317 313 306 306 313 313 312 311 309 305 306 306 308 308 308 308 307 307 307 308 309 311 314 316 322 326 326 327 327 327 328
316 316 315 315 315 316 315 315 314 309 305 310 311 309 307 305 303 303 303 304 306 306 306 305 306 305 306 307 309 311 313 319 324 326 327 326 327 327
311 312 313 313 313 313 313 313 311 310 304 307 307 304 304 302 300 300 301 302 304 305 305 305 304 304 304 305 307 309 310 315 323 325 325 326 326 324
308 308 309 308 309 310 309 309 309 308 305 302 303 301 300 300 298 296 295 295 299 303 304 304 303 302 302 303 304 306 307 310 315 321 323 323 321 319
306 306 306 306 306 307 307 306 306 305 303 302 300 299 297 297 293 292 291 291 294 295 299 302 301 300 299 300 301 302 304 306 308 311 313 315 316 316
304 304 304 304 304 304 303 303 303 301 301 299 299 297 296 295 294 290 289 289 289 291 294 297 297 296 296 297 297 299 301 303 305 306 307 308 310 312
301 301 302 299 298 299 300 301 301 299 298 297 297 294 292 290 290 291 289 287 287 288 288 290 294 291 290 293 294 296 298 300 301 302 304 304 306 306
299 300 299 296 297 298 298 297 297 297 296 296 295 292 292 291 291 289 287 285 285 288 287 288 288 287 288 290 292 293 294 296 297 298 299 301 302 304
299 299 298 297 295 298 295 293 293 293 294 294 293 292 292 292 290 288 287 287 287 287 287 288 286 285 286 290 293 291 292 293 295 295 296 298 300 301
298 298 298 296 295 294 293 292 291 291 292 291 291 292 292 292 291 290 288 286 285 285 286 286 285 284 285 288 291 292 292 293 294 294 295 296 297 297
297 297 296 295 294 293 291 289 289 288 291 292 292 292 293 293 293 289 286 286 285 285 286 284 283 283 284 285 289 292 292 293 295 295 295 295 295 295
294 294 292 293 293 293 291 290 286 286 287 288 289 290 292 291 293 290 290 287 287 285 285 283 282 282 280 284 287 288 289 293 294 294 294 294 294 291
291 291 290 293 293 292 292 290 288 288 288 287 287 287 288 288 287 287 288 288 286 284 286 285 282 281 283 280 283 285 287 288 288 289 292 293 293 291
290 292 291 291 291 292 292 292 290 288 286 285 285 285 285 285 285 285 285 285 285 285 285 285 284 282 282 280 280 284 285 286 286 286 286 290 292 292
291 290 290 289 289 289 291 292 291 287 285 283 283 284 285 284 283 283 283 284 284 284 284 280 284 281 282 282 282 281 281 283 284 284 284 283 284 285
293 289 289 289 289 288 288 290 288 287 285 284 284 284 284 282 282 283 282 283 283 281 283 281 282 281 279 281 282 281 281 280 283 283 283 283 284 285
291 288 287 286 285 285 285 286 287 286 284 284 284 283 283 283 282 282 282 282 280 282 281 282 283 283 282 280 278 281 281 280 281 281 282 281 283 284
288 286 286 285 285 285 284 284 285 285 284 284 284 283 282 282 281 281 281 281 281 282 281 281 280 279 280 282 284 280 281 281 282 282 281 279 280 284
288 286 285 285 285 285 284 284 284 284 283 284 284 283 282 282 282 281 281 281 281 281 283 283 281 279 276 276 281 286 281 282 282 281 281 281 279 282
288 287 286 286 286 285 284 284 284 284 284 284 284 284 283 282 281 281 282 281 281 281 281 283 281 280 277 277 279 281 286 280 280 279 279 281 283 286
288 287 287 287 287 287 285 285 285 285 284 283 283 282 282 282 282 282 282 284 283 281 280 281 282 286 279 279 277 279 279 285 284 279 279 279 277 278
287 286 286 286 287 287 287 287 286 286 285 285 284 284 283 283 282 281 282 281 281 282 282 280 280 280 279 280 278 279 279 280 284 286 286 284 279 274
286 285 285 285 286 286 285 285 285 285 285 285 285 285 285 284 284 283 283 283 282 282 282 281 280 281 280 280 280 279 280 280 280 280 281 286 286 287

GFSNE_sfc_thetae_114.txt.gz
Theta_e
321 319 317 317 316 314 313 311 307 301 301 305 303 305 304 305 306 305 306 308 308 307 308 307 307 307 308 308 309 311 313 314 317 324 324 324 324 327
317 316 313 311 311 312 310 310 308 304 300 303 302 303 302 302 302 302 302 304 306 306 306 305 305 305 305 306 307 309 312 313 318 324 326 325 325 327
312 310 309 310 308 308 308 307 306 306 304 302 301 301 302 299 299 299 300 301 303 305 305 305 304 304 303 304 305 307 309 312 319 324 326 327 327 326
306 307 308 307 305 305 304 304 304 303 301 300 300 299 299 299 298 296 295 296 299 303 305 304 303 301 301 302 302 305 307 309 313 319 322 324 325 324
305 304 303 303 302 302 302 301 301 302 302 300 299 298 296 296 293 292 292 292 294 296 299 302 301 299 299 300 300 302 304 306 309 311 314 319 320 320
301 301 301 301 300 300 299 298 299 297 300 298 297 296 295 294 294 291 289 290 290 291 294 298 297 295 295 296 297 298 301 303 306 308 309 310 312 315
299 299 298 297 299 299 297 296 296 295 297 296 294 292 292 291 290 292 289 288 288 289 288 289 292 290 288 292 293 296 298 300 302 304 306 307 307 308
296 296 296 296 298 299 299 298 296 293 294 292 292 292 292 292 292 289 287 286 287 288 286 287 288 286 285 287 293 293 295 297 298 300 302 304 305 305
296 295 295 295 296 294 296 295 294 295 294 290 292 291 291 292 290 288 287 286 287 287 286 286 286 283 284 289 293 292 293 294 296 297 300 303 302 302
296 295 294 292 293 292 291 289 288 288 289 290 287 289 291 291 291 290 289 287 285 285 286 285 284 281 282 283 292 292 292 293 294 295 296 299 300 300
294 294 293 291 295 294 289 286 286 286 291 293 292 293 293 294 293 289 285 285 284 284 285 285 283 280 281 281 285 292 292 293 295 295 296 297 297 298
291 291 295 292 294 294 289 287 284 283 284 284 285 287 291 292 295 290 287 286 286 285 285 284 277 278 275 281 283 285 286 293 294 295 296 295 295 290
289 288 288 294 294 294 293 289 286 285 286 283 283 283 284 284 283 285 286 287 286 285 283 281 276 276 282 276 278 280 284 285 285 287 293 294 294 291
287 288 288 293 293 294 292 292 291 288 282 282 282 282 280 279 279 280 282 282 285 285 282 280 281 276 275 275 276 279 279 280 280 281 283 289 293 293
288 289 292 292 292 290 291 292 292 284 282 280 279 278 278 280 279 278 279 283 283 280 282 281 283 283 283 279 276 277 277 279 281 281 282 282 284 286
293 287 287 287 288 286 287 287 285 284 282 279 279 278 279 276 276 276 273 274 274 280 281 278 280 279 277 278 277 276 278 277 278 280 282 282 284 285
289 287 286 284 283 284 282 283 284 283 281 279 278 278 279 278 278 275 274 274 273 274 277 279 282 282 282 280 277 279 279 278 279 279 281 279 282 283
288 286 285 285 284 284 283 282 282 285 282 280 278 279 278 277 275 274 274 273 274 275 276 277 277 279 279 282 285 279 280 279 279 281 280 276 279 282
286 285 285 285 285 284 284 283 283 282 279 280 280 277 276 276 281 276 276 274 275 277 278 281 278 276 274 274 280 286 279 280 280 279 280 279 276 280
286 286 285 285 285 285 284 282 281 281 280 279 279 277 277 276 276 276 277 276 277 276 278 279 280 279 275 276 278 280 286 278 280 278 276 280 282 286
287 286 286 286 285 286 285 284 283 281 280 279 278 278 278 278 279 278 278 283 281 278 278 279 282 286 276 277 277 279 279 286 283 278 276 277 276 278
287 287 287 287 287 287 286 286 285 285 282 283 281 280 279 279 279 278 279 279 280 279 280 278 276 275 273 279 278 276 276 279 284 286 286 283 277 273
287 287 286 286 286 287 286 286 285 285 285 285 285 284 284 283 283 282 282 281 280 279 279 277 277 276 280 280 280 278 277 278 279 278 280 286 287 287

GFSNE_sfc_thetae_117.txt.gz
Theta_e
325 323 321 318 317 317 315 312 307 299 300 304 302 302 303 302 304 302 302 308 308 308 308 307 307 307 307 307 308 308 310 312 314 316 318 323 325 323
320 319 317 315 314 313 312 310 308 305 301 303 300 301 301 301 302 300 300 304 306 307 306 305 305 305 305 305 305 307 308 312 314 317 323 326 324 324
316 316 312 311 310 308 308 307 306 304 301 299 299 298 298 298 299 297 300 300 303 306 306 305 304 303 303 303 304 305 308 310 313 318 324 326 325 325
311 311 309 308 305 306 306 304 304 302 300 298 297 297 299 299 298 297 295 295 298 301 305 304 302 301 301 301 301 302 305 307 310 314 322 324 325 324
308 307 305 305 304 303 302 301 300 301 299 297 296 296 297 296 294 292 292 291 294 296 299 302 300 299 298 298 299 300 302 304 308 310 314 319 320 320
305 304 303 302 301 300 300 299 298 297 297 296 295 296 296 294 291 292 291 290 291 292 294 297 298 295 296 296 296 297 299 302 305 309 309 310 314 317
301 299 298 298 300 300 298 296 296 295 294 293 292 293 293 290 289 291 290 289 289 290 289 290 291 290 290 291 292 295 297 300 302 305 308 309 309 312
297 296 296 298 300 301 300 299 296 293 292 289 291 291 292 292 291 290 288 286 288 288 287 287 288 286 287 288 295 294 295 297 299 302 305 305 305 307
295 295 294 295 296 295 298 297 296 297 295 291 291 291 291 292 290 288 287 287 287 287 286 286 286 285 284 288 293 294 293 295 296 298 303 303 303 304
296 295 293 292 293 292 290 288 287 288 289 289 287 289 291 292 292 291 289 288 286 286 286 285 285 284 282 283 291 293 293 294 295 296 299 300 301 302
295 295 293 291 296 296 289 286 286 286 292 293 292 293 293 294 294 289 286 285 285 285 285 285 284 282 280 281 283 293 292 294 294 294 297 297 299 299
293 293 296 292 297 296 287 286 284 283 283 284 284 286 290 291 295 290 287 286 286 285 285 282 281 277 275 280 282 283 285 293 294 295 295 295 295 289
290 288 289 296 296 295 292 288 287 285 286 283 282 283 283 283 282 285 286 287 286 286 284 279 274 275 276 277 280 281 282 284 285 285 293 295 294 291
288 288 289 295 295 294 293 293 293 288 282 282 282 281 280 279 279 279 282 281 285 285 285 277 274 273 272 275 277 280 279 278 279 280 280 289 293 293
288 290 291 293 294 293 294 293 292 283 281 280 279 279 279 280 278 278 281 283 282 282 283 283 281 282 277 274 278 280 279 280 280 278 280 280 281 283
292 290 291 289 289 287 287 288 284 283 282 280 279 279 282 280 275 274 271 280 274 278 279 280 281 276 274 277 279 279 280 278 279 281 283 282 285 285
289 286 284 283 282 282 282 283 283 283 282 280 278 279 279 278 277 273 272 271 271 275 277 278 281 281 279 279 279 281 280 280 279 281 282 281 283 285
287 286 285 285 284 282 282 283 282 284 282 280 278 278 277 275 274 274 272 271 271 274 274 275 276 277 280 282 285 280 279 279 279 281 281 279 280 282
288 287 286 286 285 284 284 283 283 281 279 279 277 276 274 273 278 273 272 272 273 277 277 277 275 271 272 276 281 286 279 278 279 279 279 280 278 280
287 287 286 286 285 284 285 284 283 278 277 276 274 274 274 273 272 272 274 273 274 274 275 275 272 272 274 276 278 281 285 277 278 277 278 280 282 286
287 287 286 286 285 285 285 284 282 278 274 273 273 274 275 275 278 275 278 283 281 276 275 277 281 285 273 276 276 278 279 286 282 278 276 277 278 279
287 287 286 286 286 286 285 285 284 285 284 280 276 276 276 276 281 277 279 278 279 278 279 279 275 272 274 280 278 274 276 278 283 286 285 283 277 274
287 287 287 287 287 287 287 286 285 285 285 284 284 279 280 280 282 282 282 281 281 280 279 279 277 275 278 279 281 278 276 277 278 278 280 286 287 287

GFSNE_sfc_thetae_120.txt.gz
Theta_e
323 323 323 322 321 319 317 315 309 303 304 305 302 304 305 304 304 301 301 306 309 309 308 307 307 307 307 307 307 307 308 309 313 314 315 319 322 322
324 322 319 318 318 317 316 313 310 305 300 302 300 300 300 300 301 298 299 303 305 308 307 306 305 305 305 305 305 306 306 309 312 315 317 321 324 325
319 319 317 316 314 314 311 310 307 306 301 298 299 298 297 296 296 296 298 297 301 305 307 306 304 303 303 302 303 303 305 308 310 313 316 322 325 324
316 316 314 311 310 308 307 305 305 303 302 298 296 295 296 296 295 295 295 295 296 300 303 305 302 301 300 300 300 301 302 305 307 310 314 322 324 325
315 314 309 308 306 305 303 303 302 302 300 298 295 294 293 293 292 291 291 290 293 297 299 301 301 299 298 298 297 298 300 303 305 308 312 318 320 322
308 309 309 307 304 302 301 299 299 298 297 296 295 293 292 291 291 290 289 289 290 293 295 297 299 298 295 296 295 296 298 301 303 307 310 310 313 317
302 302 303 302 302 302 299 297 297 295 294 292 291 291 290 289 290 289 288 287 290 288 290 291 291 291 290 291 293 295 296 299 301 305 307 309 311 314
299 298 299 300 302 303 301 300 298 294 292 289 286 289 290 292 292 290 288 287 288 289 287 288 288 287 287 289 294 295 295 297 299 303 304 305 306 311
298 296 295 297 298 297 300 300 299 298 296 291 289 289 289 292 291 288 288 287 288 288 287 286 286 285 286 287 292 294 294 295 297 300 302 303 304 307
297 296 295 294 294 293 291 289 288 288 289 290 289 290 291 293 292 290 290 288 287 286 287 284 285 284 285 284 290 294 293 294 295 298 300 301 302 304
298 295 293 292 297 296 289 286 286 286 293 293 292 292 292 293 292 288 287 285 285 286 285 285 284 283 281 281 283 291 294 294 295 297 298 299 299 299
294 294 296 293 298 297 288 287 284 284 284 284 284 286 289 290 294 290 287 286 286 285 285 281 277 277 275 279 280 282 284 293 295 296 296 296 295 289
291 291 292 297 298 296 292 287 286 285 287 283 282 283 283 283 283 286 287 286 286 286 286 283 272 274 273 275 277 279 282 284 284 285 292 295 294 291
290 290 291 297 297 296 293 293 293 288 283 282 282 281 280 279 279 280 282 283 285 285 286 283 275 271 267 270 275 278 279 279 279 279 279 289 293 294
290 291 292 296 295 295 294 294 293 283 282 281 280 279 278 277 281 281 282 283 282 282 283 283 279 279 268 268 273 275 277 279 279 280 280 280 280 283
293 292 292 293 293 290 290 290 285 283 282 279 279 279 282 282 278 276 274 279 277 277 279 280 281 280 278 280 273 273 277 276 278 279 281 281 283 284
289 287 286 284 284 283 283 283 284 284 282 280 278 279 280 279 278 279 273 278 275 277 277 276 279 278 275 275 272 276 276 277 276 278 281 279 281 284
287 285 284 284 283 283 282 282 283 286 282 280 279 279 278 277 274 279 277 272 274 270 270 275 271 272 275 280 283 275 276 276 276 280 281 277 277 282
288 287 286 285 285 284 284 283 282 283 282 280 279 277 276 274 278 276 278 278 276 272 273 271 269 268 270 273 279 286 273 275 276 278 280 279 277 280
289 288 287 287 286 286 285 284 284 283 280 278 275 275 275 273 271 270 272 276 275 273 272 274 277 270 275 275 273 277 285 275 277 278 277 280 282 286
289 288 288 287 287 287 286 285 282 280 276 275 275 275 274 272 273 271 274 281 280 273 272 271 277 283 272 277 276 276 278 285 282 276 277 278 278 279
288 288 287 287 287 286 285 284 283 284 282 278 276 275 273 274 281 280 278 274 274 274 272 272 273 274 276 280 279 273 275 278 282 286 285 283 276 273
287 287 287 287 287 287 286 285 284 283 283 281 279 278 277 277 278 278 277 277 275 274 276 275 274 273 275 278 280 279 277 276 277 278 280 286 287 287

GFSNE_sfc_thetae_123.txt.gz
Theta_e
322 322 321 320 320 320 317 316 315 306 306 304 304 304 303 303 303 301 300 306 308 309 309 308 307 306 306 307 307 307 307 308 310 314 315 315 319 322
321 322 322 320 320 318 317 316 313 310 305 303 302 300 303 302 302 298 299 303 304 307 308 307 306 305 305 305 304 304 305 306 310 313 315 316 319 322
321 322 322 320 318 317 316 314 311 309 302 299 298 299 298 298 298 297 297 296 297 304 306 307 305 303 303 302 302 302 302 305 308 311 313 317 321 324
319 318 317 314 314 313 312 311 309 306 302 298 297 296 297 296 295 294 295 295 294 300 303 305 303 301 300 300 299 299 300 302 305 308 311 317 323 324
318 317 316 313 310 310 310 308 306 303 301 299 296 294 293 292 291 290 290 290 293 297 300 301 301 301 299 299 297 297 298 301 303 307 309 313 319 323
317 317 315 312 310 307 307 305 302 301 299 296 295 293 292 291 290 290 290 289 289 293 295 297 298 299 296 296 296 296 296 299 302 306 308 309 313 317
307 309 308 307 307 308 304 302 299 297 295 293 292 290 290 288 289 288 289 287 288 288 287 289 290 291 290 291 293 296 296 298 300 304 306 308 312 314
304 303 303 303 304 306 303 302 300 296 293 290 287 289 290 290 290 291 288 288 288 286 285 288 288 287 288 288 294 295 295 296 298 302 304 306 309 312
300 299 298 299 300 299 301 301 300 300 297 293 291 290 290 291 290 289 288 288 288 289 286 284 286 285 286 287 292 295 294 295 297 301 302 304 306 309
298 297 297 297 296 295 293 291 290 290 291 291 291 290 291 291 292 291 290 288 288 287 287 284 284 285 285 285 289 294 294 295 296 299 300 301 303 304
296 296 296 295 298 297 291 288 287 287 293 293 292 293 294 295 293 289 287 286 286 286 285 285 284 283 281 281 282 290 293 295 296 297 298 298 299 300
296 296 298 296 299 297 290 288 285 285 286 285 285 288 289 291 295 289 286 286 286 285 285 285 282 277 278 279 280 282 283 293 296 296 296 296 295 293
294 294 295 298 299 297 293 288 288 286 288 283 283 283 283 284 285 287 287 286 286 286 286 285 281 275 274 276 277 278 280 282 282 284 293 295 295 291
292 293 294 298 298 298 294 293 294 289 283 282 282 282 282 280 280 280 283 284 285 285 286 284 281 273 270 270 274 277 276 277 277 278 279 290 293 294
292 293 294 297 297 297 295 295 294 283 283 281 281 280 280 278 281 282 282 283 282 282 284 282 279 274 270 268 271 274 275 277 277 276 278 280 280 283
294 293 293 295 295 292 293 293 285 284 283 281 280 280 282 281 280 277 276 278 276 275 281 281 281 281 279 280 271 271 273 274 277 277 280 280 283 284
290 289 288 288 288 287 286 286 285 285 283 281 280 280 281 281 279 279 278 278 276 276 276 278 280 279 274 272 272 274 274 274 273 276 280 278 280 283
288 287 287 287 287 286 285 285 284 286 284 282 281 280 279 277 277 279 279 278 276 272 274 277 270 272 273 277 280 273 274 274 274 277 279 275 276 281
289 287 287 286 285 285 284 283 283 284 284 283 281 279 277 275 279 278 279 278 277 274 269 274 265 266 268 271 278 285 272 273 274 276 277 278 277 280
290 288 287 286 285 285 284 284 284 283 283 283 280 276 275 272 269 275 277 277 277 269 269 276 278 272 271 273 274 276 283 274 275 273 273 279 282 286
290 289 289 288 287 287 286 286 285 284 283 282 281 276 275 272 271 271 274 279 278 274 271 268 275 282 271 276 274 275 278 284 281 274 273 274 276 279
291 289 288 288 288 288 286 285 285 285 283 279 277 277 276 276 276 280 279 278 278 278 274 269 271 273 279 279 276 274 275 278 282 286 285 282 274 272
288 288 288 288 288 287 285 285 285 285 283 281 280 279 278 277 281 281 278 276 274 274 274 272 272 273 278 280 280 279 279 276 277 278 279 286 287 287

GFSNE_sfc_thetae_126.txt.gz
Theta_e
323 323 321 321 321 320 317 315 313 307 307 306 305 306 306 305 304 301 300 306 307 308 309 307 307 307 306 306 306 306 306 307 308 311 315 316 317 320
321 321 320 320 319 319 318 316 316 314 308 307 304 304 304 302 302 298 299 302 304 306 308 308 306 305 305 304 304 304 303 304 307 311 314 315 318 321
321 321 321 321 321 320 319 317 315 311 310 300 301 300 300 300 299 296 297 296 297 303 305 306 307 304 303 302 302 302 301 302 305 310 313 315 319 323
320 319 319 317 317 316 316 314 313 309 305 301 299 298 300 299 296 295 296 296 294 299 303 304 304 302 301 301 300 300 299 300 303 307 310 313 317 323
320 319 318 315 313 312 310 309 309 306 305 302 297 297 296 296 294 292 291 291 293 297 300 302 302 301 300 299 298 298 298 299 302 305 308 311 318 320
318 318 317 315 315 311 309 308 305 303 302 299 296 294 294 293 292 290 290 290 290 293 295 296 298 300 298 296 296 296 297 297 301 305 307 309 312 315
315 314 315 313 310 311 309 305 304 300 298 296 293 292 291 290 289 289 289 287 288 288 288 289 290 290 289 290 293 296 296 297 299 303 305 309 312 313
307 305 306 304 306 307 306 305 304 300 296 292 290 291 290 290 289 289 287 288 287 287 286 287 287 286 286 286 294 296 295 296 298 302 304 307 311 311
303 302 301 303 304 302 304 303 302 302 299 295 292 291 291 291 290 287 288 287 289 289 287 285 284 284 284 286 292 295 295 296 297 300 302 305 308 310
303 304 302 301 299 298 297 295 293 293 294 293 293 292 292 291 292 291 289 289 288 288 288 286 283 283 284 284 290 293 295 296 297 299 300 301 304 305
298 299 299 297 300 299 294 290 289 289 294 295 295 296 296 296 293 289 287 286 286 287 286 286 284 282 280 281 282 291 293 296 296 298 298 299 299 302
296 297 301 298 300 298 292 290 288 287 288 287 288 289 291 293 295 289 286 286 286 285 286 285 282 280 278 280 280 282 283 292 294 296 296 297 298 296
295 294 296 300 300 299 295 291 290 288 290 285 284 285 285 286 287 288 288 287 286 286 286 285 280 280 275 277 278 279 280 282 283 284 291 295 296 295
293 295 295 298 299 298 296 294 294 290 285 283 283 283 283 282 282 283 284 285 285 286 286 285 283 281 270 272 275 278 277 278 277 278 279 288 292 295
294 295 296 297 298 298 296 295 295 286 284 283 282 282 282 282 282 282 283 283 282 283 284 283 282 274 270 270 273 275 276 277 277 277 278 280 280 284
294 294 295 296 297 295 294 294 287 285 285 284 282 281 281 281 281 281 278 278 275 275 281 282 282 279 279 279 273 271 273 273 277 276 279 280 283 284
292 289 289 289 290 289 289 290 287 285 284 283 281 281 282 281 281 278 278 278 273 273 274 279 281 281 277 274 274 276 273 273 273 275 281 279 280 283
290 287 288 289 289 289 288 288 286 287 284 283 282 282 281 280 279 279 279 277 273 275 276 277 272 271 273 277 279 272 272 274 273 277 279 275 278 281
291 289 289 288 288 288 288 287 286 286 285 284 283 282 281 279 280 278 278 278 277 273 270 277 267 268 269 270 277 284 271 272 275 278 278 277 275 280
292 290 289 289 288 287 286 286 286 285 285 285 283 282 280 279 278 278 278 278 277 275 271 276 277 270 271 272 271 274 283 274 276 276 276 279 280 285
291 290 289 288 287 286 285 285 284 284 285 284 283 282 280 278 277 277 278 280 278 273 273 274 277 281 269 270 274 273 276 284 280 275 276 276 276 278
290 290 289 288 286 286 285 285 285 285 284 284 283 282 280 279 279 276 276 279 280 277 275 270 273 278 278 274 271 269 273 277 282 286 284 282 276 272
289 289 289 288 286 286 285 285 285 285 285 284 282 281 280 279 279 280 280 280 280 278 274 274 276 278 279 280 279 279 279 279 277 278 280 285 287 287

GFSNE_sfc_thetae_129.txt.gz
Theta_e
327 327 325 325 324 324 321 320 318 315 315 314 311 313 311 308 308 306 307 308 309 309 309 308 307 306 306 306 306 307 306 306 307 308 312 316 317 319
326 325 324 324 324 324 323 320 319 320 315 315 311 306 307 305 306 305 305 305 306 307 307 308 307 306 304 304 304 304 304 304 305 308 313 316 318 319
323 322 323 323 321 321 320 320 319 319 315 306 304 303 303 303 304 303 304 305 304 304 305 305 306 305 303 302 303 302 302 302 303 307 312 315 318 318
320 320 321 319 320 322 320 319 319 318 316 310 300 300 301 303 304 303 301 300 302 299 303 304 306 303 301 301 301 300 300 300 301 305 310 312 318 320
320 320 319 319 318 318 317 315 313 309 308 303 298 298 298 298 298 297 298 298 296 297 300 303 304 303 301 300 298 298 298 299 300 304 307 309 314 318
319 319 319 318 318 314 313 313 310 307 304 302 298 297 297 296 297 297 295 295 296 296 296 298 299 300 300 297 295 296 297 298 300 304 306 307 311 314
317 318 318 315 311 314 314 312 308 305 302 298 296 295 294 293 296 296 296 295 295 295 295 296 297 296 295 292 293 296 296 297 299 303 305 308 311 312
316 314 312 306 308 309 310 310 310 305 301 298 294 295 295 296 294 294 293 292 293 293 293 293 293 292 292 292 293 295 296 296 299 302 304 306 310 310
305 304 303 303 304 305 306 306 305 304 302 299 296 295 296 296 294 292 293 293 293 292 293 292 290 290 290 289 292 294 296 296 299 300 302 304 309 310
304 303 303 301 301 300 298 296 295 295 296 297 297 296 296 296 296 295 293 293 292 291 292 292 289 289 289 289 289 293 295 296 298 299 300 301 304 307
302 303 302 300 301 300 296 292 292 291 296 297 296 297 297 297 295 293 290 290 289 290 289 291 288 288 287 287 287 290 293 296 297 298 298 301 300 304
299 299 300 300 301 300 296 293 290 289 290 290 293 295 297 297 296 295 292 289 289 289 290 290 287 286 287 286 287 288 290 292 293 295 297 298 299 298
296 296 297 300 301 300 298 295 293 290 291 289 289 288 289 291 292 291 291 290 288 289 289 289 286 285 285 286 285 286 287 289 291 292 294 296 298 296
296 296 296 298 299 299 297 296 297 294 289 286 285 286 286 287 287 288 288 288 288 288 290 287 286 287 286 283 284 285 287 288 289 289 291 292 294 297
296 296 297 297 299 299 298 297 296 288 287 285 285 285 286 286 285 285 285 285 285 286 286 285 286 283 285 285 284 284 285 286 287 289 290 291 291 293
297 296 297 297 297 297 297 295 291 287 287 286 285 284 284 283 283 284 282 282 283 282 283 284 283 282 283 284 283 283 284 285 285 287 288 288 290 291
296 291 291 291 291 291 292 292 288 287 286 285 284 284 283 283 282 281 281 280 281 280 280 281 283 284 283 283 281 282 283 285 284 285 285 286 288 289
294 289 289 289 290 290 290 289 288 288 286 285 284 284 283 283 281 281 281 281 280 279 280 279 280 280 280 282 283 283 283 284 284 284 285 285 286 286
293 291 289 289 289 290 290 290 288 288 286 285 284 284 283 282 283 280 280 280 279 278 279 279 278 280 280 280 282 284 283 282 283 283 284 285 285 285
292 291 290 290 289 289 289 289 288 287 286 286 285 283 283 282 281 280 280 279 280 279 278 278 279 279 282 283 282 283 283 282 283 283 283 284 285 285
289 290 291 291 290 289 289 288 287 285 286 285 285 284 283 282 282 281 281 281 280 278 278 278 281 283 279 281 282 281 282 284 284 284 283 284 283 282
287 287 289 289 289 288 287 286 285 285 285 285 285 284 283 283 282 281 281 281 281 278 280 280 279 280 281 281 280 279 280 282 284 285 284 284 284 281
285 286 287 288 288 286 285 285 285 285 285 285 285 285 283 282 283 282 281 282 282 280 279 278 279 281 281 281 280 280 280 281 283 283 284 286 287 286